Fort Indiantown Gap, PA

5:54 AM EST on December 13, 2019 (GMT -0500)
Muir Army Air Field

Weather History for KMUI - October, 2019

Change the Weather History Date:

Friday, October 25, 2019

  Actual Average Record
Temperature  
Mean Temperature 50 °F -  
Max Temperature 64 °F 58 °F 71 °F (2000)
Min Temperature 37 °F 41 °F 33 °F (2016)
Degree Days  
Heating Degree Days 14    
Moisture  
Dew Point 44 °F    
Average Humidity 78    
Maximum Humidity 96    
Minimum Humidity 50    
Precipitation  
Precipitation 0.00 in - - ()
Sea Level Pressure  
Sea Level Pressure 30.26 in    
Wind  
Wind Speed 1 mph (SSW)    
Max Wind Speed 6 mph    
Max Gust Speed -    
Visibility 10 miles    
Events      
Averages and records for this station are not official NWS values.
T = Trace of Precipitation, MM = Missing Value Source: NWS Daily Summary

Daily Weather History Graph

Daily Weather History Graph

Search for Another Location

Airport or City:

Astronomy

Oct. 25, 2019 Rise Set
Actual Time 7:27 AM EDT 6:12 PM EDT
Civil Twilight 6:59 AM EDT 6:40 PM EDT
Nautical Twilight 6:28 AM EDT 7:11 PM EDT
Astronomical Twilight 5:56 AM EDT 7:43 PM EDT
Moon 4:06 AM EDT (10/25) 5:13 PM EDT (10/25)
Length of Visible Light 11h 40m
Length of Day
10h 44m
Waning Crescent, 9% of the Moon is Illuminated
Oct 25
Waning Crescent
Oct 27
New
Nov 4
First Quarter
Nov 12
Full
Nov 19
Last Quarter

Hourly Weather History & Observations

Time (EDT) Temp. Dew Point Humidity Pressure Visibility Wind Dir Wind Speed Gust Speed Precip Events Conditions
12:56 AM 42.4 °F 39.2 °F 88% 30.30 in 10.0 mi Calm Calm - N/A   Clear
1:56 AM 42.4 °F 39.7 °F 90% 30.30 in 10.0 mi Calm Calm - N/A   Clear
3:56 AM 39.9 °F 38.1 °F 93% 30.30 in 10.0 mi Calm Calm - N/A   Clear
4:56 AM 39.6 °F 38.5 °F 96% 30.30 in 10.0 mi Calm Calm - N/A   Clear
5:56 AM 37.9 °F 36.7 °F 95% 30.31 in 10.0 mi Calm Calm - N/A   Clear
6:56 AM 39.6 °F 38.5 °F 96% 30.31 in 10.0 mi Calm Calm - N/A   Clear
7:56 AM 39.4 °F 38.3 °F 96% 30.31 in 10.0 mi Calm Calm - N/A   Clear
8:56 AM 41.9 °F 40.6 °F 95% 30.33 in 10.0 mi Calm Calm - N/A   Clear
9:56 AM 47.5 °F 45.5 °F 93% 30.33 in 10.0 mi Calm Calm - N/A   Mostly Cloudy
10:56 AM 53.2 °F 47.3 °F 80% 30.32 in 10.0 mi Calm Calm - N/A   Mostly Cloudy
11:56 AM 56.3 °F 48.2 °F 74% 30.30 in 10.0 mi Calm Calm - N/A   Mostly Cloudy
12:56 PM 59.0 °F 48.4 °F 68% 30.27 in 10.0 mi Calm Calm - N/A   Mostly Cloudy
1:56 PM 60.8 °F 46.8 °F 60% 30.24 in 10.0 mi SSE 3.5 mph - N/A   Partly Cloudy
2:56 PM 63.3 °F 45.9 °F 53% 30.20 in 10.0 mi SW 4.6 mph - N/A   Mostly Cloudy
3:56 PM 64.2 °F 45.1 °F 50% 30.19 in 10.0 mi SSW 5.8 mph - N/A   Clear
4:56 PM 63.7 °F 45.1 °F 51% 30.19 in 10.0 mi SSW 4.6 mph - N/A   Mostly Cloudy
5:56 PM 61.9 °F 44.6 °F 53% 30.19 in 10.0 mi Calm Calm - N/A   Mostly Cloudy
6:56 PM 56.1 °F 47.7 °F 73% 30.20 in 10.0 mi Calm Calm - N/A   Overcast
7:56 PM 55.0 °F 47.7 °F 76% 30.20 in 10.0 mi Calm Calm - N/A   Partly Cloudy
8:56 PM 54.7 °F 47.3 °F 76% 30.21 in 10.0 mi Calm Calm - N/A   Overcast
9:56 PM 53.2 °F 47.5 °F 81% 30.21 in 10.0 mi Calm Calm - N/A   Mostly Cloudy
11:56 PM 52.9 °F 47.5 °F 82% 30.20 in 10.0 mi Calm Calm - N/A   Mostly Cloudy